Content
SEND FEEDBACK

Daily
Averages
Monthly
Summary
France

LE HAVRE, FRANCE


Home > Europe > France
Elevation: 338 feet     Latitude: 49 31N     Longitude: 000 04E

WEATHER
 
SELECT A DAY
Number of Records: 184,238;   Date Range: 3/4/97 - 10/29/14
 
SHARE

PRINT THIS DATA

[ ← Previous Day ]
WEATHER ALMANAC - APRIL 10, 2013
[ Next Day → ]
[ °C ]   °F
Weather ElementAverageHighLow
Temperature47.5 °F51.8 °F (2:30 pm)44.6 °F (1:00 am)
Dewpoint44.2 °F50 °F (11:30 pm)41 °F (4:00 am)
Humidity88.3 %100 % (2:30 am)67 % (2:30 pm)
Barometer29.62 in29.74 in (10:00 am)29.44 in (10:00 pm)
Wind Speed12.6 mph20.7 mph (4:00 am)
Weather ElementAverage
Visibility5 mi
Wind DirectionSSW (208.9 °)

Weather ElementTotal
Precipitation---
Heating Degree Days16.8 (Base 65)
Averaged from 47 records on April 10, 2013
WEATHER CONDITIONS BREAKOUT
WIND DIRECTION BREAKOUT
WEATHER BY HOUR - APRIL 10, 2013
[ °C ]   °F
Local TimeTemperatureDewpointHumidityBarometerVisibilityWind DirectionWind SpeedGust SpeedPrecipitationEventsConditions
12:30 AM46.4 °F42.8 °F87 %29.53 in6.2 miWSW (240°)19.6 mphOvercast
1:00 AM44.6 °F42.8 °F93 %29.56 in6.2 miWSW (250°)13.8 mphMostly Cloudy
1:30 AM44.6 °F42.8 °F93 %29.56 in6.2 miWSW (250°)10.4 mphOvercast
2:00 AM44.6 °F42.8 °F93 %29.56 in6.2 miSW (230°)13.8 mphLight Drizzle
2:30 AM44.6 °F44.6 °F100 %29.56 in6.2 miSW (230°)16.1 mphOvercast
3:00 AM44.6 °F42.8 °F93 %29.59 in3.7 miWest (260°)18.4 mphOvercast
3:30 AM44.6 °F42.8 °F93 %29.59 in5.6 miWSW (250°)18.4 mphOvercast
4:00 AM44.6 °F41.0 °F87 %29.59 inWSW (250°)20.7 mphOvercast
4:30 AM44.6 °F42.8 °F93 %29.62 in2.5 miWSW (250°)19.6 mphOvercast
5:00 AM44.6 °F42.8 °F93 %29.62 inWSW (250°)19.6 mphOvercast
5:30 AM44.6 °F42.8 °F93 %29.65 inWSW (250°)18.4 mphOvercast
6:00 AM44.6 °F42.8 °F93 %29.65 inWSW (250°)16.1 mphOvercast
6:30 AM44.6 °F42.8 °F93 %29.65 in2.2 miWSW (250°)17.3 mphOvercast
7:00 AM44.6 °F41.0 °F87 %29.68 inWSW (250°)16.1 mphOvercast
7:30 AM44.6 °F41.0 °F87 %29.68 inWSW (250°)15.0 mphOvercast
8:00 AM44.6 °F42.8 °F93 %29.68 in1.9 miWSW (250°)11.5 mphOvercast
8:30 AM44.6 °F42.8 °F93 %29.71 in2.2 miWSW (240°)11.5 mphOvercast
9:00 AM44.6 °F42.8 °F93 %29.71 inSW (230°)12.7 mphOvercast
9:30 AM44.6 °F42.8 °F93 %29.71 in3.1 miWSW (240°)10.4 mphOvercast
10:00 AM46.4 °F42.8 °F87 %29.74 in3.1 miWSW (240°)10.4 mphOvercast
10:30 AM46.4 °F44.6 °F93 %29.71 in3.7 miWSW (240°)10.4 mphOvercast
11:00 AM48.2 °F44.6 °F87 %29.74 in5.0 miSW (230°)11.5 mphMostly Cloudy
11:30 AM48.2 °F44.6 °F87 %29.74 in5.0 miWSW (240°)9.2 mphMostly Cloudy
12:00 PM46.4 °F42.8 °F87 %29.74 in4.3 miWest (260°)8.1 mphMostly Cloudy
12:30 PM48.2 °F44.6 °F87 %29.74 in6.2 miWSW (250°)8.1 mphMostly Cloudy
1:00 PM50.0 °F42.8 °F76 %29.74 in6.2 miWSW (240°)6.9 mphMostly Cloudy
1:30 PM50.0 °F42.8 °F76 %29.74 in6.2 miWSW (250°)6.9 mphScattered Clouds
2:00 PM50.0 °F42.8 °F76 %29.74 in6.2 miWSW (240°)4.6 mphMostly Cloudy
2:30 PM51.8 °F41.0 °F67 %29.71 in6.2 miSouth (190°)6.9 mphMostly Cloudy
3:00 PM51.8 °F42.8 °F71 %29.71 in6.2 miSouth (180°)6.9 mphMostly Cloudy
3:30 PM51.8 °F42.8 °F71 %29.68 in6.2 miSouth (180°)8.1 mphMostly Cloudy
4:00 PM50.0 °F44.6 °F82 %29.68 in6.2 miSouth (180°)11.5 mphRainLight Rain
4:30 PM50.0 °F44.6 °F82 %29.68 in6.2 miSouth (170°)9.2 mphRainLight Rain
5:00 PM50.0 °F44.6 °F82 %29.68 in6.2 miSSE (160°)8.1 mphRainLight Rain
5:30 PM50.0 °F46.4 °F87 %29.65 in6.2 miSE (140°)8.1 mphRainLight Rain
6:00 PM50.0 °F46.4 °F87 %29.62 in5.0 miESE (120°)9.2 mphRainRain
6:30 PM50.0 °F46.4 °F87 %29.59 in6.2 miSE (130°)10.4 mphRainLight Rain
7:00 PM50.0 °F46.4 °F87 %29.59 in5.0 miESE (120°)12.7 mphRainLight Rain
7:30 PM48.2 °F46.4 °F93 %29.53 in5.0 miESE (120°)13.8 mphRainLight Rain
8:00 PM48.2 °F46.4 °F93 %29.50 in5.0 miSE (130°)15.0 mphRainLight Rain
8:30 PM48.2 °F46.4 °F93 %29.50 inSE (130°)15.0 mphRainLight Rain
9:00 PM48.2 °F48.2 °F100 %29.47 in2.5 miSE (140°)13.8 mphRainLight Rain
9:30 PM50.0 °F48.2 °F94 %29.47 in3.7 miSE (140°)12.7 mphRainLight Rain
10:00 PM50.0 °F48.2 °F94 %29.44 in3.7 miSSE (160°)12.7 mphRainLight Rain
10:30 PM50.0 °F48.2 °F94 %29.44 in6.2 miSouth (190°)15.0 mphOvercast
11:00 PM51.8 °F48.2 °F88 %29.44 in6.2 miSouth (190°)16.1 mphMostly Cloudy
11:30 PM51.8 °F50.0 °F94 %29.44 in6.2 miSouth (190°)13.8 mphOvercast
Hourly data recorded from LFOH, located miles away from Le Havre, France







STORIES FROM OUR PARTNERS